Home   Weather   Entebbe   Past weeks

Flag for Uganda Past Weather in Entebbe, Uganda — Yesterday and Last 2 Weeks

79 °F

Partly sunny.

Feels Like: 81 °F
Forecast: 64 / 76 °F
Wind: 7 mph from Southwest

Location: Entebbe Airport

Current Time: Oct 21, 2016 at 4:08:20 PM

Latest Report: Oct 21, 2016 at 3:00 PM

Visibility: N/A

Pressure: 30.04 "Hg (26.31 "Hg at 1160m altitude)

Humidity: 61%

Dew Point: 64 °F

Location of EntebbeLocation

Past Weather in Entebbe — Graph


Entebbe Temperature Yesterday

Maximum temperature yesterday: 82 °F (at 1:00 PM)
Minimum temperature yesterday: 68 °F (at 6:00 AM)
Average temperature yesterday: 74 °F

High & Low Weather Summary for the Past Weeks

High82 °F (Oct 12, 2:00 PM)100% (Oct 9, 7:00 AM)30.15 "Hg (Oct 9, 7:00 AM)
Low64 °F (Oct 10, 6:00 AM)28% (Oct 16, 3:00 PM)29.92 "Hg (Oct 6, 5:00 PM)
Average74 °F78%30.02 "Hg
* Reported Oct 6 2:00 PM — Oct 21 2:00 PM, Entebbe, Weather by CustomWeather, © 2016

Note: Actual official high and low records may vary slightly from our data, if they occured in-between our weather recording intervals... More about our weather records


Entebbe Weather History for the Previous 24 Hours

Scroll right to see more
Time TempWeatherWind HumidityBarometerVisibility
2:00 PM
Fri, Oct 21
75 °FPartly sunny.7 mph78%30.04 "HgN/A
1:00 PM73 °FPartly sunny.6 mph78%30.09 "HgN/A
12:00 PM72 °FPartly sunny.7 mph78%30.12 "HgN/A
11:00 AM72 °FLight rain. Partly sunny.9 mph78%30.12 "HgN/A
10:00 AM68 °FLight rain. Partly sunny.No wind88%30.12 "Hg6 mi
9:00 AM68 °FThunderstorms. Broken clouds.13 mph94%30.12 "Hg4 mi
8:00 AM70 °FPartly sunny.9 mph83%30.07 "Hg6 mi
7:00 AM70 °FPartly sunny.8 mph88%30.04 "Hg5 mi
6:00 AM70 °FPassing clouds.14 mph88%30.04 "Hg5 mi
5:00 AM70 °FPassing clouds.6 mph88%30.01 "Hg5 mi
4:00 AM72 °FPassing clouds.7 mph83%29.98 "Hg5 mi
3:00 AM70 °FPassing clouds.9 mph88%29.98 "Hg5 mi
2:00 AM70 °FPassing clouds.6 mph88%29.98 "Hg5 mi
1:00 AM70 °FPassing clouds.12 mph88%29.98 "Hg6 mi
12:00 AM72 °FPassing clouds.9 mph88%30.01 "Hg6 mi
11:00 PM
Thu, Oct 20
72 °FPassing clouds.6 mph88%30.01 "HgN/A
10:00 PM72 °FPassing clouds.7 mph78%30.01 "HgN/A
9:00 PM73 °FPassing clouds.5 mph78%30.01 "HgN/A
8:00 PM73 °FPassing clouds.6 mph74%29.95 "HgN/A
7:00 PM75 °FPassing clouds.8 mph74%29.95 "HgN/A
6:00 PM77 °FPassing clouds.6 mph69%29.95 "HgN/A
5:00 PM79 °FPassing clouds.6 mph65%29.95 "HgN/A
4:00 PM79 °FPassing clouds.6 mph65%29.98 "HgN/A
Weather by CustomWeather, © 2016

See weather overviewHow to use our weather pages